Flag for United Kingdom Weather past 2 weeks in Poole, England, United Kingdom

Now
59 °F

Passing clouds.


Feels Like: 59 °F
Forecast: 45 / 63 °F
Wind: 5 mph from North

Location: Bournemouth Airport

Current Time: Sep 21, 2014 at 1:36:22 AM

Latest Report: Sep 20, 2014 at 11:50 PM


Visibility: 5 mi

Pressure: 30.12 "Hg

Humidity: 94%

Dew point: 57 °F

Location of PooleLocation

Historic Weather in Poole — Graph

°F

Poole temperature yesterday

Maximum temperature yesterday: 66 °F (at 12:50 PM)
Minimum temperature yesterday: 55 °F (at 1:50 AM)
Average temperature yesterday: 62 °F

Past Weeks' High & Low Weather Summary

 TemperatureHumidityPressure
High77 °F (Sep 18, 3:50 PM)100% (Sep 6, 4:50 AM)30.30 "Hg (Sep 6, 4:50 AM)
Low45 °F (Sep 9, 4:50 AM)50% (Sep 15, 4:20 PM)29.74 "Hg (Sep 18, 4:50 AM)
Average62 °F81%30.02 "Hg
* Reported Sep 5 11:20 PM — Sep 20 11:50 PM, Poole, Weather by CustomWeather, © 2014

Note: Actual official high and low records may vary slightly from our data, if they occured in-between our weather recording intervals... More about our weather records

Advertising

Poole weather history for previous 24 hours

 ConditionsComfort  
Time TempWeatherWind HumidityBarometerVisibility
11:50 PM
Sep 20
59 °FPassing clouds.5 mph94%30.12 "Hg5 mi
11:20 PM57 °FPassing clouds.6 mph94%30.09 "Hg5 mi
10:50 PM59 °FPassing clouds.6 mph94%30.09 "Hg5 mi
10:20 PM63 °FPassing clouds.6 mph88%30.09 "Hg4 mi
9:20 PM63 °FPassing clouds.5 mph88%30.09 "Hg4 mi
8:50 PM63 °FPassing clouds.6 mph88%30.07 "Hg4 mi
8:20 PM63 °FPartly cloudy.5 mph88%30.07 "Hg5 mi
7:50 PM64 °FPartly sunny.5 mph83%30.07 "Hg6 mi
7:20 PM64 °FPartly sunny.7 mph83%30.04 "HgN/A
6:50 PM64 °FPartly sunny.9 mph83%30.04 "HgN/A
1:50 PM66 °FPartly sunny.5 mph88%30.01 "Hg4 mi
1:20 PM66 °FPartly sunny.3 mph88%30.01 "Hg3 mi
12:50 PM66 °FLow clouds.3 mph88%30.01 "Hg3 mi
12:20 PM64 °FFog.3 mph94%30.01 "Hg3 mi
11:50 AM64 °FFog.6 mph94%30.01 "Hg3 mi
11:20 AM64 °FFog.6 mph94%29.98 "Hg2 mi
10:50 AM64 °FFog.6 mph94%29.98 "Hg2 mi
10:20 AM64 °FFog.6 mph94%29.98 "Hg2 mi
9:50 AM64 °FFog.5 mph94%29.92 "Hg1 mi
9:20 AM64 °FFog.5 mph94%29.98 "Hg1 mi
8:50 AM63 °FFog.3 mph100%29.95 "Hg1 mi
8:20 AM63 °FFog.5 mph100%29.95 "Hg1 mi
7:50 AM63 °FFog.8 mph100%29.95 "Hg1 mi
7:20 AM63 °FFog.7 mph94%29.95 "Hg1 mi
6:50 AM63 °FFog.7 mph94%29.92 "Hg1 mi
6:20 AM63 °FFog.7 mph94%29.92 "Hg1 mi
5:50 AM61 °FFog.3 mph100%29.92 "Hg0 mi
5:20 AM59 °FFog.1 mph100%29.92 "Hg0 mi
4:50 AM59 °FFog.5 mph100%29.92 "Hg1 mi
4:20 AM59 °FFog.1 mph94%29.92 "Hg1 mi
3:50 AM57 °FFog.1 mph100%29.92 "Hg1 mi
3:20 AM55 °FFog.No wind100%29.92 "Hg0 mi
2:20 AM57 °FFog.2 mph94%29.92 "Hg0 mi
1:50 AM55 °FFog.1 mph100%29.92 "Hg0 mi
1:20 AM57 °FFog.2 mph100%29.92 "Hg0 mi
Weather by CustomWeather, © 2014

See weather overviewHow to use our weather pages